This is the latest recevied weather packets stored in our database for station/object WA0LM. If no packets are shown the sender has not sent any weather packets the latest 10 day(s).
| Time | Temp. | Humidity | Pressure | Rain* | Wind** | Luminosity | Snow |
|---|---|---|---|---|---|---|---|
| 1776955310 | 17.78° C | 83% | 997.5 hPa | 0 mm | - | 36 W/m² | - |
| 1776955005 | 17.78° C | 83% | 997.6 hPa | 0 mm | - | 33 W/m² | - |
| 1776954704 | 17.78° C | 83% | 997.6 hPa | 0 mm | - | 52 W/m² | - |
| 1776954401 | 17.78° C | 84% | 997.6 hPa | 0 mm | - | 52 W/m² | - |
| 1776954097 | 17.22° C | 84% | 997.8 hPa | 0 mm | - | 43 W/m² | - |
| 1776953797 | 17.22° C | 84% | 997.7 hPa | 0 mm | - | 33 W/m² | - |
| 1776953493 | 17.22° C | 84% | 997.8 hPa | 0 mm | - | 47 W/m² | - |
| 1776953192 | 17.22° C | 84% | 998 hPa | 0 mm | - | 29 W/m² | - |
| 1776952887 | 17.22° C | 84% | 998 hPa | 0 mm | - | 34 W/m² | - |
| 1776952584 | 17.22° C | 84% | 998 hPa | 0 mm | - | 39 W/m² | - |
| 1776952279 | 17.22° C | 84% | 997.9 hPa | 0 mm | - | 31 W/m² | - |
| 1776951976 | 17.22° C | 84% | 998.1 hPa | 0 mm | - | 41 W/m² | - |
| 1776951673 | 17.22° C | 84% | 998.2 hPa | 0 mm | - | 42 W/m² | - |
| 1776951369 | 17.22° C | 83% | 998.2 hPa | 0 mm | - | 55 W/m² | - |
| 1776951066 | 17.22° C | 84% | 998.1 hPa | 0 mm | - | 46 W/m² | - |
| 1776950762 | 16.67° C | 84% | 998.4 hPa | 0 mm | - | 29 W/m² | - |
| 1776950458 | 16.67° C | 84% | 998.3 hPa | 0 mm | - | 25 W/m² | - |
| 1776950157 | 16.67° C | 84% | 998.5 hPa | 0 mm | - | 29 W/m² | - |
| 1776949854 | 16.67° C | 84% | 998.6 hPa | 0 mm | - | 15 W/m² | - |
| 1776949551 | - | - | - | 0 mm | - | - | - |
| 1776949246 | - | - | - | 0 mm | - | - | - |
| 1776948942 | 16.67° C | 83% | 998.6 hPa | 0 mm | - | 13 W/m² | - |
| 1776948638 | 16.67° C | 83% | 998.6 hPa | 0 mm | - | 13 W/m² | - |
| 1776948335 | 16.67° C | 83% | 998.8 hPa | 0 mm | - | 13 W/m² | - |
| 1776948035 | 16.67° C | 83% | 998.9 hPa | 0 mm | - | 13 W/m² | - |
* Rain latest hour (hover to see other rain measurements)
** Current wind speed in m/s (hover to see current wind gust speed)